map of BEY home
BEY - Airport
Location
City:  Beirut, Lebanon
Name:Rafic Hariri International Airport
ICAO:OLBA
IATA:BEY

Details
Type:Airport (Aerodrome, Airfield)
Use:Public/Civil, Military, International (customs port of entry)
Latitude:3349'15"N (33.820931)
Longitude:3529'18"E (35.488389)
Datum:WGS 1984
Elevation:87 ft (27 m)
Variation:4.85E (WMM2015 magnetic declination)
0.08 annual change
Runways:3
Longest:12467 × 148 ft (3800 × 45 m), paved

Time
Time Zone:UTC+2 (DST+3)
Local Time:

Weather
METAR:OLBA 230000Z 11004G15KT 080V210 6000 SCT090 SCT200 17/11 Q1010
TAF:OLBA 220400Z 2206/2312 01015KT 270V030 7000 BKN070
BECMG 2218/2220 15006KT PROB30
TEMPO 2218/2312 -RA
BECMG 2306/2308 25010G20KT 8000 BKN026

Related Locations
Nearby:
Farthest:RVV: 11721 mi / 18862 km
Raivavae, Tubuai Islands, Austral Islands, PF

Find:

   beyond  
but within

Other Information
Maps:
NOTAMs:
Links:
Sources:

  
flag of Lebanon   

Sectional Chart

Flight Planning
at skyvector.com

Satellite Image

Google Maps Satellite view

 

Copyright © 2004-2017 Karl L. Swartz. All rights reserved.
The Great Circle Mapper name and logo are trademarks of the Great Circle Mapper.
All other trademarks mentioned herein belong to their respective owners.
Please see credits for attibutions and further copyright information.

  Follow gcmap on Facebook Follow gcmap on Twitter Follow gcmap on Google+ GCmap on LinkedIn

hCard Microformat

Geo Microformat